CZ-3B R/B, 55913

Orbit data source: Space-Track

CZ-3B R/B, 55913 is space debris originally from a launch on Fri, 17 Mar 2023 UTC launched from the Xichang Space Center, China (XSC). Debris objects in space refer to the collection of defunct objects orbiting the Earth. Examples of debris include non-operational satellites, rocket bodies, and fragments generated from explosions, collisions, or faulty payload assembly.

Loading next visibility...
Identifier
55913, 2023-036B
Orbit
Active
Country
Flag of CNCN / PRC
Related business
Manufacturer
CALT
Mission
Spacecraft
Bus & Motor
CZ-3A STAGE 3, Unknown motor
Mass
~2,800 kg wet, ~2,800 kg dry
Launch date (UTC)
2023-03-17 (3 years ago)
Launch vehicle
Unknown
Launch site
Xichang Space Center, China (XSC)
Object type
Payload
Rocket body
Debris
Shape & HBR
Cyl + 1 Nozzle, 6.2 m
Radar Cross Section
32.704 m², Large (>1 m²)

Expand to show TLE details & history
Last TLE update: 16 hours ago

TLE from 16 hours ago
0 CZ-3B R/B
1 55913U 23036B   26150.00750898  .00085175 -34187-6  86550-3 0  9991
2 55913  28.1764  60.3224 4598236 307.2107  19.0396  6.47952477 48187
Epoch: 2026-05-30T00:10Z
TLE epoch observation values (Epoch: 2026-05-30T00:10:48.775Z)
Latitude
Longitude
170.08946°
Altitude
1,122.313 km
Speed
8.573 km/s
True Right ascension
04h 01m 17s
True Declination
0° 00' 00"
Sunlit
Object was in daylight at epoch
Visualization orbit readout
Latitude
Unknown
Longitude
Unknown
Altitude
Unknown
Speed
Unknown
Apparent Right ascension
Unknown
Apparent Declination
Unknown
Sunlit
N/A
Visualization observer readout
Local Sidereal Time
02:11:04
Azimuth
Unknown
Elevation
Unknown
Doppler factor
Unknown
Orbital elements
Apogee altitude
11,369.075 km
Perigee altitude
188.838 km
Semi-major axis
12,157.093 km
Eccentricity
0.45982
Inclination
28.1764°
RAAN
60.3224°
Arg. of periapsis
307.2107°
True anomaly
52.83807°
Mean anomaly
19.0396°
Eccentric anomaly
33.63116°
Mean motion
1.61919 °/min
Orbital period
222.33 mins
BSTAR
0.0008655
Loading maneuver chart data...
Computing Atmospheric mass density...
Loading historical data...
Loading historical data...
Loading historical data...
Loading historical data...
Loading historical data...
Loading historical data...
Loading historical data...
Other satellites on launch #36 in the year 2023 (2023-03-17 UTC)

Documentation

Showing up to 5 results
|